User: anonymous   Login
Location: Unspecified
(0.0000°N, 0.0000°E)
Time: 11:03:17
(UTC+00:00)
Language:

Megsat 1 - Orbit

View from above orbital plane
View from above orbital plane
View from above satellite
View from above satellite

Ground track
Ground track

The orbit data is extracted from the following two-line orbital elements,

1 26545U 00057A   17351.66081262  .00000032  00000-0  21282-4 0  9996
2 26545  64.5545 237.9313 0020733 194.9074 165.1425 14.84833442931581
Epoch (UTC): 17 December 2017 15:51:34
Eccentricity: 0.0020733
inclination: 64.5545°
perigee height: 599 km
apogee height: 628 km
right ascension of ascending node: 237.9313°
argument of perigee: 194.9074°
revolutions per day: 14.84833442
mean anomaly at epoch: 165.1425°
orbit number at epoch: 93158

The dashed part of the orbit path shows where the satellite is in the earth's shadow,  

DLR